TimeCST,TemperatureF,Dew PointF,Humidity,Sea Level PressureIn,VisibilityMPH,Wind Direction,Wind SpeedMPH,Gust SpeedMPH,PrecipitationIn,Events,Conditions,WindDirDegrees,DateUTC
12:16 AM,24.8,15.8,69,29.59,10.0,SSE,6.9,-,N/A,,Overcast,150,2013-02-18 06:16:00
12:36 AM,24.8,15.8,69,29.59,10.0,SSE,6.9,-,N/A,,Overcast,160,2013-02-18 06:36:00
12:57 AM,23.0,15.8,74,29.58,10.0,SSE,5.8,-,N/A,,Overcast,150,2013-02-18 06:57:00
1:16 AM,23.0,15.8,74,29.58,10.0,SSE,6.9,-,N/A,,Mostly Cloudy,160,2013-02-18 07:16:00
1:36 AM,23.0,15.8,74,29.57,10.0,SSE,5.8,-,N/A,,Mostly Cloudy,150,2013-02-18 07:36:00
1:57 AM,23.0,15.8,74,29.57,10.0,SSE,6.9,-,N/A,,Overcast,160,2013-02-18 07:57:00
2:16 AM,23.0,15.8,74,29.56,10.0,SSE,6.9,-,N/A,,Overcast,150,2013-02-18 08:16:00
2:36 AM,23.0,15.8,74,29.56,10.0,SSE,6.9,-,N/A,,Overcast,150,2013-02-18 08:36:00
2:57 AM,23.0,15.8,74,29.55,10.0,SSE,5.8,-,N/A,,Overcast,150,2013-02-18 08:57:00
3:16 AM,23.0,15.8,74,29.54,10.0,SSE,5.8,-,N/A,,Overcast,150,2013-02-18 09:16:00
3:37 AM,23.0,15.8,74,29.54,10.0,SSE,5.8,-,N/A,,Overcast,150,2013-02-18 09:37:00
3:56 AM,23.0,15.8,74,29.53,10.0,SE,5.8,-,N/A,,Overcast,130,2013-02-18 09:56:00
4:16 AM,23.0,15.8,74,29.52,10.0,SE,5.8,-,N/A,,Overcast,130,2013-02-18 10:16:00
4:37 AM,23.0,15.8,74,29.51,10.0,SE,5.8,-,N/A,,Overcast,140,2013-02-18 10:37:00
4:56 AM,23.0,15.8,74,29.51,10.0,SE,5.8,-,N/A,,Overcast,140,2013-02-18 10:56:00
5:16 AM,23.0,15.8,74,29.51,10.0,SE,5.8,-,N/A,,Overcast,140,2013-02-18 11:16:00
5:37 AM,23.0,15.8,74,29.51,10.0,SE,4.6,-,N/A,,Overcast,140,2013-02-18 11:37:00
5:56 AM,23.0,15.8,74,29.50,10.0,SSE,4.6,-,N/A,,Overcast,150,2013-02-18 11:56:00
6:16 AM,23.0,15.8,74,29.50,10.0,SE,4.6,-,N/A,,Overcast,140,2013-02-18 12:16:00
6:37 AM,23.0,17.6,80,29.50,10.0,SSE,4.6,-,N/A,,Overcast,160,2013-02-18 12:37:00
6:56 AM,23.0,17.6,80,29.50,10.0,SSE,5.8,-,N/A,,Overcast,160,2013-02-18 12:56:00
7:16 AM,23.0,17.6,80,29.49,10.0,SSE,4.6,-,N/A,,Overcast,150,2013-02-18 13:16:00
7:36 AM,23.0,17.6,80,29.49,2.0,SSE,3.5,-,N/A,Snow,Light Snow,150,2013-02-18 13:36:00
8:17 AM,21.2,19.4,93,29.49,3.0,Calm,Calm,-,N/A,Snow,Light Snow,0,2013-02-18 14:17:00
8:36 AM,21.2,19.4,93,29.49,0.8,Calm,Calm,-,N/A,Snow,Light Snow,0,2013-02-18 14:36:00
8:56 AM,21.2,19.4,93,29.49,1.0,Calm,Calm,-,N/A,Snow,Light Snow,0,2013-02-18 14:56:00
9:17 AM,21.2,19.4,93,29.49,3.0,Calm,Calm,-,N/A,Snow,Light Snow,0,2013-02-18 15:17:00
9:36 AM,21.2,19.4,93,29.49,5.0,Calm,Calm,-,N/A,Snow,Light Snow,0,2013-02-18 15:36:00
9:56 AM,21.2,19.4,93,29.49,5.0,Calm,Calm,-,N/A,Snow,Light Snow,0,2013-02-18 15:56:00
10:17 AM,23.0,19.4,86,29.48,5.0,Calm,Calm,-,N/A,Snow,Light Snow,0,2013-02-18 16:17:00
10:36 AM,23.0,19.4,86,29.49,7.0,Calm,Calm,-,N/A,Snow,Light Snow,0,2013-02-18 16:36:00
10:57 AM,23.0,19.4,86,29.50,7.0,Calm,Calm,-,N/A,,Overcast,0,2013-02-18 16:57:00
11:16 AM,23.0,19.4,86,29.50,10.0,Calm,Calm,-,N/A,,Overcast,0,2013-02-18 17:16:00
11:36 AM,24.8,19.4,80,29.50,10.0,Calm,Calm,-,N/A,,Overcast,0,2013-02-18 17:36:00
11:57 AM,24.8,19.4,80,29.50,7.0,Calm,Calm,-,N/A,,Overcast,0,2013-02-18 17:57:00
12:16 PM,24.8,19.4,80,29.50,5.0,Calm,Calm,-,N/A,,Overcast,0,2013-02-18 18:16:00
12:36 PM,23.0,19.4,86,29.50,5.0,West,4.6,-,N/A,,Overcast,280,2013-02-18 18:36:00
12:57 PM,24.8,19.4,80,29.50,7.0,WNW,3.5,-,N/A,,Overcast,290,2013-02-18 18:57:00
1:16 PM,24.8,19.4,80,29.50,7.0,WNW,4.6,-,N/A,,Overcast,300,2013-02-18 19:16:00
1:36 PM,24.8,21.2,86,29.51,4.0,WNW,5.8,-,N/A,,Overcast,300,2013-02-18 19:36:00
1:57 PM,24.8,21.2,86,29.51,5.0,NW,4.6,-,N/A,,Overcast,310,2013-02-18 19:57:00
2:16 PM,24.8,21.2,86,29.52,4.0,WNW,4.6,-,N/A,Snow,Light Snow,300,2013-02-18 20:16:00
2:37 PM,24.8,21.2,86,29.53,4.0,NW,3.5,-,N/A,Snow,Light Snow,320,2013-02-18 20:37:00
2:56 PM,24.8,19.4,80,29.53,5.0,NNW,8.1,-,N/A,Snow,Light Snow,330,2013-02-18 20:56:00
3:16 PM,24.8,19.4,80,29.54,5.0,NNW,5.8,-,N/A,Snow,Light Snow,330,2013-02-18 21:16:00
3:36 PM,24.8,19.4,80,29.55,7.0,NNW,4.6,-,N/A,Snow,Light Snow,340,2013-02-18 21:36:00
3:56 PM,19.4,15.8,86,29.57,4.0,WNW,11.5,20.7,N/A,Snow,Light Snow,300,2013-02-18 21:56:00
4:17 PM,19.4,15.8,86,29.58,4.0,NW,13.8,19.6,N/A,Snow,Light Snow,320,2013-02-18 22:17:00
4:36 PM,17.6,12.2,79,29.60,5.0,NW,13.8,19.6,N/A,Snow,Light Snow,320,2013-02-18 22:36:00
4:56 PM,17.6,12.2,79,29.61,2.5,NW,11.5,16.1,N/A,Snow,Light Snow,310,2013-02-18 22:56:00
5:17 PM,15.8,12.2,86,29.63,1.5,NW,9.2,18.4,N/A,Snow,Light Snow,320,2013-02-18 23:17:00
5:36 PM,15.8,10.4,79,29.64,2.5,NW,10.4,18.4,N/A,Snow,Light Snow,320,2013-02-18 23:36:00
5:56 PM,14.0,10.4,86,29.66,4.0,NW,16.1,20.7,N/A,Snow,Light Snow,320,2013-02-18 23:56:00
6:17 PM,12.2,8.6,85,29.67,5.0,NW,13.8,20.7,N/A,Snow,Light Snow,320,2013-02-19 00:17:00
6:36 PM,12.2,6.8,79,29.68,4.0,NW,11.5,17.3,N/A,Snow,Light Snow,310,2013-02-19 00:36:00
6:56 PM,10.4,6.8,85,29.69,4.0,NW,12.7,17.3,N/A,Snow,Light Snow,310,2013-02-19 00:56:00
7:17 PM,8.6,5.0,85,29.70,5.0,NW,11.5,20.7,N/A,Snow,Light Snow,320,2013-02-19 01:17:00
7:36 PM,8.6,3.2,79,29.71,5.0,NW,8.1,18.4,N/A,Snow,Light Snow,320,2013-02-19 01:36:00
7:56 PM,8.6,1.4,73,29.71,7.0,NNW,12.7,24.2,N/A,Snow,Light Snow,330,2013-02-19 01:56:00
8:17 PM,6.8,1.4,79,29.72,7.0,NNW,11.5,18.4,N/A,Snow,Light Snow,330,2013-02-19 02:17:00
8:37 PM,6.8,1.4,79,29.73,10.0,NW,9.2,19.6,N/A,Snow,Light Snow,320,2013-02-19 02:37:00
8:56 PM,6.8,-0.4,72,29.74,7.0,NNW,16.1,23.0,N/A,Snow,Light Snow,340,2013-02-19 02:56:00
9:17 PM,5.0,-0.4,78,29.75,7.0,NW,10.4,19.6,N/A,Snow,Light Snow,320,2013-02-19 03:17:00
9:36 PM,5.0,-2.2,72,29.76,10.0,North,9.2,19.6,N/A,Snow,Light Snow,350,2013-02-19 03:36:00
9:56 PM,5.0,-0.4,78,29.76,7.0,NNW,6.9,17.3,N/A,Snow,Light Snow,340,2013-02-19 03:56:00
10:17 PM,3.2,-0.4,85,29.77,5.0,NNW,11.5,17.3,N/A,Snow,Light Snow,340,2013-02-19 04:17:00
10:36 PM,3.2,-2.2,78,29.77,7.0,NNW,8.1,18.4,N/A,Snow,Light Snow,330,2013-02-19 04:36:00
10:56 PM,3.2,-2.2,78,29.78,7.0,NW,9.2,-,N/A,Snow,Light Snow,320,2013-02-19 04:56:00
11:17 PM,3.2,-2.2,78,29.79,10.0,NNW,11.5,16.1,N/A,,Overcast,340,2013-02-19 05:17:00
11:36 PM,1.4,-2.2,85,29.79,10.0,NNW,9.2,16.1,N/A,,Overcast,330,2013-02-19 05:36:00
11:56 PM,1.4,-4.0,78,29.79,10.0,NNW,11.5,17.3,N/A,,Overcast,340,2013-02-19 05:56:00